DW6157 Weather Reports


Display with metric or nautical units.
time (UTC)temp
F
wind
direction
speed
MPH
gust
MPH
rain 1hr
in
rain 24hr
in
rain mn
in
humidity
%
barometer
mb
20260905083025 58 77 0.0 0.0 0.00 0.10 0.10 91 999.3
20260905081524 57 73 0.0 0.0 0.00 0.10 0.10 92 999.2
20260905080024 57 72 0.0 5.0 0.00 0.10 0.10 90 999.2
20260905074525 57 44 0.0 0.0 0.00 0.10 0.10 93 999.1
20260905073019 56 37 0.0 0.0 0.00 0.10 0.10 94 999.0
20260905071517 56 14 0.0 0.0 0.00 0.10 0.10 96 999.0
20260905070014 55 360 0.0 0.0 0.00 0.10 0.10 97 998.9
20260905064621 53 350 0.0 0.0 0.00 0.12 0.10 96 998.8
20260905063009 53 16 0.0 0.0 0.00 0.12 0.10 96 998.6
20260905061507 53 16 0.0 0.0 0.00 0.12 0.10 96 998.5
20260905060005 52 16 0.0 0.0 0.00 0.12 0.10 96 998.4
20260905054509 52 16 0.0 0.0 0.00 0.12 0.10 96 998.3
20260905053002 52 16 0.0 0.0 0.00 0.12 0.10 96 998.3
20260905051503 52 16 0.0 0.0 0.02 0.12 0.10 96 998.2
20260905050100 52 16 0.0 0.0 0.04 0.12 0.10 96 998.0
20260905044608 52 16 0.0 0.0 0.04 0.13 0.10 96 998.0
20260905043103 52 16 0.0 0.0 0.05 0.13 0.10 96 998.0
20260905041557 52 16 0.0 0.0 0.07 0.11 0.08 96 997.9
20260905040107 52 18 0.0 0.0 0.06 0.09 0.06 96 997.9
20260905034602 52 26 0.0 0.0 0.06 0.11 0.06 96 997.8
20260905033055 52 335 0.0 0.0 0.05 0.10 0.05 96 997.8
20260905031555 52 333 0.0 0.0 0.01 0.06 0.01 96 997.8
20260905030053 52 333 0.0 0.0 0.00 0.05 0.00 96 997.8
20260905024559 51 333 0.0 0.0 0.00 0.25 0.00 96 997.7
20260905023050 52 333 0.0 0.0 0.00 0.25 0.00 96 997.5
20260905021549 51 333 0.0 0.0 0.00 0.25 0.00 96 997.4
20260905020054 51 333 0.0 0.0 0.00 0.25 0.00 96 997.4
20260905014547 51 333 0.0 0.0 0.00 0.38 0.00 96 997.3
20260905013045 51 333 0.0 0.0 0.00 0.38 0.00 96 997.1
20260905011544 51 333 0.0 0.0 0.00 0.38 0.00 96 997.0
20260905010044 51 333 0.0 0.0 0.00 0.38 0.00 96 997.0
20260905004544 51 333 0.0 0.0 0.00 0.43 0.00 96 997.0
20260905003043 51 333 0.0 0.0 0.00 0.43 0.00 96 997.1
20260905001541 50 333 0.0 0.0 0.00 0.43 0.00 95 996.9
20260905000040 50 329 0.0 3.0 0.00 0.43 0.00 95 996.7
20260904234539 51 11 0.0 2.0 0.00 0.43 0.00 95 996.6
20260904233036 51 334 0.0 3.0 0.00 0.43 0.00 95 996.5
20260904231549 51 35 0.0 2.0 0.00 0.43 0.00 95 996.5
20260904230034 51 33 1.0 4.0 0.00 0.43 0.00 95 996.5
20260904224533 51 37 0.0 0.0 0.00 0.43 0.00 95 996.5
20260904223031 51 339 0.0 0.0 0.00 0.43 0.00 95 996.4
20260904221535 52 311 0.0 0.0 0.00 0.43 0.00 95 996.4
20260904220029 52 303 0.0 0.0 0.00 0.43 0.00 95 996.4
20260904214528 52 302 0.0 0.0 0.00 0.43 0.43 95 996.4
20260904213026 52 302 0.0 0.0 0.00 0.43 0.43 95 996.4
20260904211525 52 299 0.0 0.0 0.00 0.43 0.43 94 996.3
20260904210030 52 299 0.0 0.0 0.00 0.43 0.43 93 996.2
20260904204524 53 275 0.0 0.0 0.00 0.43 0.43 93 996.2
20260904203024 54 275 0.0 0.0 0.00 0.43 0.43 93 996.2
20260904201523 54 275 0.0 0.0 0.00 0.43 0.43 93 996.1
20260904200031 55 275 0.0 0.0 0.00 0.43 0.43 92 996.1
20260904194522 55 275 0.0 0.0 0.00 0.43 0.43 93 996.2
20260904193022 55 275 0.0 0.0 0.00 0.43 0.43 93 996.0
20260904191523 55 275 0.0 0.0 0.00 0.43 0.43 92 996.1
20260904190021 56 235 0.0 0.0 0.00 0.43 0.43 91 996.1
20260904184521 57 227 0.0 0.0 0.00 0.45 0.43 90 996.1
20260904183019 57 224 0.0 0.0 0.00 0.45 0.43 89 996.2
20260904181519 58 224 0.0 0.0 0.00 0.45 0.43 87 996.2
20260904180022 59 224 0.0 0.0 0.00 0.45 0.43 87 996.2
20260904174518 60 224 0.0 0.0 0.00 0.49 0.43 85 996.2
20260904173018 60 224 0.0 0.0 0.00 0.49 0.43 85 996.3
20260904171518 60 224 0.0 0.0 0.00 0.49 0.43 84 996.2
20260904170017 60 224 0.0 0.0 0.00 0.49 0.43 84 996.2
20260904164519 60 210 0.0 0.0 0.00 0.50 0.43 83 996.2
20260904163019 61 210 0.0 0.0 0.00 0.50 0.43 84 996.2
20260904161514 60 210 0.0 0.0 0.00 0.50 0.43 86 996.3
20260904160013 60 218 0.0 5.0 0.00 0.50 0.43 84 996.5
20260904154513 61 210 2.0 8.0 0.00 0.50 0.43 83 996.5
20260904153014 62 210 0.0 5.0 0.00 0.50 0.43 83 996.5
20260904151511 62 216 0.0 6.0 0.00 0.50 0.43 83 996.5
20260904150010 62 215 0.0 0.0 0.00 0.50 0.43 85 996.5
20260904144509 61 216 0.0 0.0 0.00 0.50 0.43 86 996.5
20260904143008 60 274 0.0 0.0 0.00 0.50 0.43 86 996.5
20260904141506 61 274 0.0 0.0 0.00 0.50 0.43 84 996.8
20260904140005 61 333 0.0 0.0 0.00 0.50 0.43 86 996.9
20260904134504 60 52 0.0 0.0 0.00 0.50 0.43 86 996.9
20260904133102 60 205 0.0 0.0 0.00 0.50 0.43 88 996.9
20260904131600 58 52 0.0 0.0 0.00 0.50 0.43 87 996.9
20260904130055 58 16 0.0 5.0 0.00 0.50 0.43 88 997.2
20260904124603 58 49 2.0 5.0 0.00 0.50 0.43 89 997.3
20260904123059 57 28 0.0 0.0 0.00 0.50 0.43 90 997.4
20260904121554 57 61 0.0 4.0 0.00 0.50 0.43 90 997.5
20260904120051 57 66 0.0 3.0 0.00 0.50 0.43 91 997.6
20260904114550 57 33 0.0 0.0 0.00 0.50 0.43 90 997.6
20260904113049 58 34 0.0 3.0 0.00 0.50 0.43 88 997.6
20260904111548 58 35 0.0 3.0 0.00 0.50 0.43 88 997.7
20260904093019 55 45 0.0 1.0 0.00 0.50 0.43 95 998.3
20260904091515 55 29 0.0 2.0 0.00 0.50 0.43 95 998.5
20260904090030 55 355 0.0 0.0 0.00 0.50 0.43 95 998.6
20260904084514 55 355 0.0 0.0 0.00 0.50 0.43 96 998.5